Location: Boissi�res
(45.2500°N, 2.3667°E)
Time: 15:23:49
(UTC+00:00)

ISS - Pass Details

Date: 23 September 2021
Orbit: 417 x 423 km, 51.6° (Epoch: 28 October)

Event Time Altitude Azimuth Distance (km) Brightness Sun altitude
Rises 19:39:17 0° 284° (WNW) 2,365 1.6 -20.4°
Reaches altitude 10° 19:41:35 10° 297° (WNW) 1,502 0.2 -20.7°
Maximum altitude 19:44:30 26° 357° (N) 858 -2.0 -21.2°
Enters shadow 19:45:00 25° 13° (NNE) 883 -2.1 -21.3°
